Year,Month,Day,Hour,Minute,Value (Times are PST for temperature in C)
2007,07,09,00,00,16.30
2007,07,09,00,01,16.30
2007,07,09,00,02,16.30
2007,07,09,00,03,16.30
2007,07,09,00,04,16.30
2007,07,09,00,05,16.30
2007,07,09,00,06,16.30
2007,07,09,00,07,16.30
2007,07,09,00,08,16.30
2007,07,09,00,09,16.30
2007,07,09,00,10,16.30
2007,07,09,00,11,16.20
2007,07,09,00,12,16.20
2007,07,09,00,13,16.20
2007,07,09,01,02,15.70
2007,07,09,01,03,15.60
2007,07,09,01,04,15.60
2007,07,09,01,05,15.60
2007,07,09,01,06,15.60
2007,07,09,01,07,15.60
2007,07,09,01,08,15.60
2007,07,09,01,09,15.60
2007,07,09,01,10,15.60
2007,07,09,01,11,15.60
2007,07,09,01,12,15.60
2007,07,09,01,13,15.60
2007,07,09,01,14,15.60
2007,07,09,01,15,15.60
2007,07,09,01,16,15.60
2007,07,09,01,17,15.60
2007,07,09,01,18,15.60
2007,07,09,01,19,15.50
2007,07,09,01,20,15.50
2007,07,09,01,21,15.50
2007,07,09,01,22,15.40
2007,07,09,01,23,15.40
2007,07,09,01,24,15.40
2007,07,09,01,25,15.40
2007,07,09,01,26,15.40
2007,07,09,01,27,15.40
2007,07,09,01,28,15.40
2007,07,09,01,29,15.30
2007,07,09,01,30,15.30
2007,07,09,01,31,15.30
2007,07,09,01,32,15.30
2007,07,09,01,33,15.30
2007,07,09,01,34,15.30
2007,07,09,01,35,15.30
2007,07,09,01,36,15.20
2007,07,09,01,37,15.20
2007,07,09,01,38,15.20
2007,07,09,01,39,15.20
2007,07,09,01,40,15.10
2007,07,09,01,41,15.10
2007,07,09,01,42,15.10
2007,07,09,01,43,15.00
2007,07,09,01,44,15.00
2007,07,09,01,45,15.00
2007,07,09,01,46,15.00
2007,07,09,01,47,15.00
2007,07,09,01,48,15.00
2007,07,09,01,49,15.00
2007,07,09,01,50,15.00
2007,07,09,01,51,15.00
2007,07,09,01,52,15.00
2007,07,09,01,53,15.00
2007,07,09,01,54,15.00
2007,07,09,01,55,15.00
2007,07,09,01,56,15.00
2007,07,09,01,57,14.90
2007,07,09,01,58,14.90
2007,07,09,01,59,14.90
2007,07,09,02,00,14.80
2007,07,09,02,01,14.80
2007,07,09,02,02,14.80
2007,07,09,02,03,14.80
2007,07,09,02,04,14.80
2007,07,09,02,05,14.80
2007,07,09,02,06,14.80
2007,07,09,02,07,14.70
2007,07,09,02,08,14.70
2007,07,09,02,09,14.70
2007,07,09,02,10,14.70
2007,07,09,02,11,14.70
2007,07,09,02,12,14.60
2007,07,09,02,13,14.60
2007,07,09,02,14,14.60
2007,07,09,02,15,14.60
2007,07,09,02,16,14.60
2007,07,09,02,17,14.50
2007,07,09,02,18,14.50
2007,07,09,02,19,14.50
2007,07,09,02,20,14.50
2007,07,09,02,21,14.40
2007,07,09,02,22,14.40
2007,07,09,02,23,14.40
2007,07,09,02,24,14.40
2007,07,09,02,25,14.40
2007,07,09,02,26,14.40
2007,07,09,02,27,14.40
2007,07,09,02,28,14.30
2007,07,09,02,29,14.30
2007,07,09,02,30,14.30
2007,07,09,02,31,14.30
2007,07,09,02,32,14.30
2007,07,09,02,33,14.30
2007,07,09,02,34,14.30
2007,07,09,02,35,14.30
2007,07,09,02,36,14.30
2007,07,09,02,37,14.30
2007,07,09,02,38,14.30
2007,07,09,02,39,14.30
2007,07,09,02,40,14.20
2007,07,09,02,41,14.20
2007,07,09,02,42,14.20
2007,07,09,02,43,14.20
2007,07,09,02,44,14.20
2007,07,09,02,45,14.20
2007,07,09,02,46,14.20
2007,07,09,02,47,14.20
2007,07,09,02,48,14.10
2007,07,09,02,49,14.10
2007,07,09,02,50,14.10
2007,07,09,02,51,14.10
2007,07,09,02,52,14.10
2007,07,09,02,53,14.10
2007,07,09,02,54,14.10
2007,07,09,02,55,14.00
2007,07,09,02,56,14.00
2007,07,09,02,57,14.00
2007,07,09,02,58,13.90
2007,07,09,02,59,13.90
2007,07,09,03,00,13.90
2007,07,09,03,01,13.90
2007,07,09,03,02,13.90
2007,07,09,03,03,13.80
2007,07,09,03,04,13.80
2007,07,09,03,05,13.80
2007,07,09,03,06,13.80
2007,07,09,03,07,13.80
2007,07,09,03,08,13.70
2007,07,09,03,09,13.70
2007,07,09,03,10,13.70
2007,07,09,03,11,13.70
2007,07,09,03,12,13.70
2007,07,09,03,13,13.70
2007,07,09,03,14,13.70
2007,07,09,03,15,13.60
2007,07,09,03,16,13.60
2007,07,09,03,17,13.60
2007,07,09,03,18,13.60
2007,07,09,03,19,13.60
2007,07,09,03,20,13.60
2007,07,09,03,21,13.60
2007,07,09,03,22,13.60
2007,07,09,03,23,13.60
2007,07,09,03,24,13.50
2007,07,09,03,25,13.50
2007,07,09,03,26,13.50
2007,07,09,03,27,13.50
2007,07,09,03,28,13.40
2007,07,09,03,29,13.40
2007,07,09,03,30,13.40
2007,07,09,03,31,13.40
2007,07,09,03,32,13.40
2007,07,09,03,33,13.30
2007,07,09,03,34,13.30
2007,07,09,03,35,13.30
2007,07,09,03,36,13.30
2007,07,09,03,37,13.30
2007,07,09,03,38,13.30
2007,07,09,03,39,13.30
2007,07,09,03,40,13.30
2007,07,09,03,41,13.20
2007,07,09,03,42,13.20
2007,07,09,03,43,13.20
2007,07,09,03,44,13.20
2007,07,09,03,45,13.20
2007,07,09,03,46,13.20
2007,07,09,03,47,13.20
2007,07,09,03,48,13.10
2007,07,09,03,49,13.10
2007,07,09,03,50,13.10
2007,07,09,03,51,13.10
2007,07,09,03,52,13.10
2007,07,09,03,53,13.10
2007,07,09,03,54,13.10
2007,07,09,03,55,13.00
2007,07,09,03,56,13.00
2007,07,09,03,57,13.00
2007,07,09,03,58,13.00
2007,07,09,03,59,13.00
2007,07,09,04,00,13.00
2007,07,09,04,01,12.90
2007,07,09,04,02,12.90
2007,07,09,04,03,12.90
2007,07,09,04,04,12.90
2007,07,09,04,05,12.90
2007,07,09,04,06,12.90
2007,07,09,04,07,12.90
2007,07,09,04,08,12.90
2007,07,09,04,09,12.90
2007,07,09,04,10,12.90
2007,07,09,04,11,12.90
2007,07,09,04,12,12.90
2007,07,09,04,13,12.90
2007,07,09,04,14,12.90
2007,07,09,04,15,12.90
2007,07,09,04,16,12.90
2007,07,09,04,17,12.80
2007,07,09,04,18,12.80
2007,07,09,04,19,12.80
2007,07,09,04,20,12.80
2007,07,09,04,21,12.80
2007,07,09,04,22,12.80
2007,07,09,04,23,12.80
2007,07,09,04,24,12.80
2007,07,09,04,25,12.80
2007,07,09,04,26,12.90
2007,07,09,04,27,12.90
2007,07,09,04,28,12.90
2007,07,09,04,29,12.90
2007,07,09,04,30,12.90
2007,07,09,04,31,12.90
2007,07,09,04,32,13.00
2007,07,09,04,33,13.00
2007,07,09,04,34,12.90
2007,07,09,04,35,12.90
2007,07,09,04,36,12.90
2007,07,09,04,37,12.90
2007,07,09,04,38,12.90
2007,07,09,04,39,12.90
2007,07,09,04,40,12.90
2007,07,09,04,41,12.90
2007,07,09,04,42,12.90
2007,07,09,04,43,12.80
2007,07,09,04,44,12.80
2007,07,09,04,45,12.80
2007,07,09,04,46,12.80
2007,07,09,04,47,12.80
2007,07,09,04,48,12.80
2007,07,09,04,49,12.80
2007,07,09,04,50,12.80
2007,07,09,04,51,12.80
2007,07,09,04,52,12.80
2007,07,09,04,53,12.80
2007,07,09,04,54,12.70
2007,07,09,04,55,12.70
2007,07,09,04,56,12.70
2007,07,09,04,57,12.70
2007,07,09,04,58,12.70
2007,07,09,04,59,12.70
2007,07,09,05,00,12.70
2007,07,09,05,01,12.60
2007,07,09,05,02,12.60
2007,07,09,05,03,12.60
2007,07,09,05,04,12.60
2007,07,09,05,05,12.60
2007,07,09,05,06,12.50
2007,07,09,05,07,12.50
2007,07,09,05,08,12.50
2007,07,09,05,09,12.40
2007,07,09,05,10,12.40
2007,07,09,05,11,12.40
2007,07,09,05,12,12.40
2007,07,09,05,13,12.40
2007,07,09,05,14,12.40
2007,07,09,05,15,12.40
2007,07,09,05,16,12.40
2007,07,09,05,17,12.40
2007,07,09,05,18,12.30
2007,07,09,05,19,12.30
2007,07,09,05,20,12.30
2007,07,09,05,21,12.30
2007,07,09,05,22,12.30
2007,07,09,05,23,12.30
2007,07,09,05,24,12.30
2007,07,09,05,25,12.30
2007,07,09,05,26,12.30
2007,07,09,05,27,12.30
2007,07,09,05,28,12.30
2007,07,09,05,29,12.30
2007,07,09,05,30,12.30
2007,07,09,05,31,12.30
2007,07,09,05,32,12.30
2007,07,09,05,33,12.30
2007,07,09,05,34,12.30
2007,07,09,05,35,12.30
2007,07,09,05,36,12.30
2007,07,09,05,37,12.30
2007,07,09,05,38,12.30
2007,07,09,05,39,12.30
2007,07,09,05,40,12.40
2007,07,09,05,41,12.40
2007,07,09,05,42,12.40
2007,07,09,05,43,12.50
2007,07,09,05,44,12.50
2007,07,09,05,45,12.50
2007,07,09,05,46,12.50
2007,07,09,05,47,12.50
2007,07,09,05,48,12.60
2007,07,09,05,49,12.60
2007,07,09,05,50,12.60
2007,07,09,05,51,12.60
2007,07,09,05,52,12.60
2007,07,09,05,53,12.60
2007,07,09,05,54,12.60
2007,07,09,05,55,12.60
2007,07,09,05,56,12.60
2007,07,09,05,57,12.70
2007,07,09,05,58,12.70
2007,07,09,05,59,12.70
2007,07,09,06,00,12.70
2007,07,09,06,01,12.70
2007,07,09,06,02,12.70
2007,07,09,06,03,12.70
2007,07,09,06,04,12.70
2007,07,09,06,05,12.70
2007,07,09,06,06,12.70
2007,07,09,06,07,12.80
2007,07,09,06,08,12.80
2007,07,09,06,09,12.80
2007,07,09,06,10,12.80
2007,07,09,06,11,12.80
2007,07,09,06,12,12.80
2007,07,09,06,13,12.90
2007,07,09,06,14,12.90
2007,07,09,06,15,12.90
2007,07,09,06,16,12.90
2007,07,09,06,17,12.90
2007,07,09,06,18,12.90
2007,07,09,06,19,12.90
2007,07,09,06,20,12.90
2007,07,09,06,21,12.90
2007,07,09,06,22,12.90
2007,07,09,06,23,12.90
2007,07,09,06,24,12.90
2007,07,09,06,25,12.90
2007,07,09,06,26,12.90
2007,07,09,06,27,13.00
2007,07,09,06,28,13.00
2007,07,09,06,29,13.00
2007,07,09,06,30,13.10
2007,07,09,06,31,13.10
2007,07,09,06,32,13.10
2007,07,09,06,33,13.20
2007,07,09,06,34,13.20
2007,07,09,06,35,13.20
2007,07,09,06,36,13.20
2007,07,09,06,37,13.20
2007,07,09,06,38,13.30
2007,07,09,06,39,13.30
2007,07,09,06,40,13.30
2007,07,09,06,41,13.30
2007,07,09,06,42,13.30
2007,07,09,06,43,13.40
2007,07,09,06,44,13.40
2007,07,09,06,45,13.40
2007,07,09,06,46,13.40
2007,07,09,06,47,13.50
2007,07,09,06,48,13.50
2007,07,09,06,49,13.50
2007,07,09,06,50,13.60
2007,07,09,06,51,13.60
2007,07,09,06,52,13.60
2007,07,09,06,53,13.70
2007,07,09,06,54,13.70
2007,07,09,06,55,13.70
2007,07,09,06,56,13.80
2007,07,09,06,57,13.80
2007,07,09,06,58,13.80
2007,07,09,06,59,13.80
2007,07,09,07,00,13.80
2007,07,09,07,01,13.90
2007,07,09,07,02,13.90
2007,07,09,07,03,14.00
2007,07,09,07,04,14.00
2007,07,09,07,05,14.10
2007,07,09,07,06,14.10
2007,07,09,07,07,14.20
2007,07,09,07,08,14.20
2007,07,09,07,09,14.30
2007,07,09,07,10,14.30
2007,07,09,07,11,14.30
2007,07,09,07,12,14.40
2007,07,09,07,13,14.40
2007,07,09,07,14,14.50
2007,07,09,07,15,14.50
2007,07,09,07,16,14.60
2007,07,09,07,17,14.70
2007,07,09,07,18,14.80
2007,07,09,07,19,14.80
2007,07,09,07,20,15.00
2007,07,09,07,21,15.00
2007,07,09,07,22,15.00
2007,07,09,07,23,15.10
2007,07,09,07,24,15.20
2007,07,09,07,25,15.20
2007,07,09,07,26,15.30
2007,07,09,07,27,15.30
2007,07,09,07,28,15.40
2007,07,09,07,29,15.40
2007,07,09,07,30,15.50
2007,07,09,07,31,15.60
2007,07,09,07,32,15.70
2007,07,09,07,33,15.70
2007,07,09,07,34,15.80
2007,07,09,07,35,15.80
2007,07,09,07,36,15.90
2007,07,09,07,37,15.90
2007,07,09,07,38,16.00
2007,07,09,07,39,16.00
2007,07,09,07,40,16.10
2007,07,09,07,41,16.20
2007,07,09,07,42,16.20
2007,07,09,07,43,16.30
2007,07,09,07,44,16.30
2007,07,09,07,45,16.30
2007,07,09,07,46,16.30
2007,07,09,07,47,16.20
2007,07,09,07,48,16.20
2007,07,09,07,49,16.20
2007,07,09,07,50,16.20
2007,07,09,07,51,16.20
2007,07,09,07,52,16.20
2007,07,09,07,53,16.20
2007,07,09,07,54,16.20
2007,07,09,07,55,16.20
2007,07,09,07,56,16.10
2007,07,09,07,57,16.10
2007,07,09,07,58,16.10
2007,07,09,07,59,16.00
2007,07,09,08,00,15.90
2007,07,09,08,01,15.80
2007,07,09,08,02,15.70
2007,07,09,08,03,15.60
2007,07,09,08,04,15.60
2007,07,09,08,05,15.60
2007,07,09,08,06,15.60
2007,07,09,08,07,15.60
2007,07,09,08,08,15.60
2007,07,09,08,09,15.70
2007,07,09,08,10,15.80
2007,07,09,08,11,15.90
2007,07,09,08,12,16.00
2007,07,09,08,13,16.10
2007,07,09,08,14,16.20
2007,07,09,08,15,16.30
2007,07,09,08,16,16.30
2007,07,09,08,17,16.40
2007,07,09,08,18,16.40
2007,07,09,08,19,16.40
2007,07,09,08,20,16.50
2007,07,09,08,21,16.60
2007,07,09,08,22,16.60
2007,07,09,08,23,16.70
2007,07,09,08,24,16.80
2007,07,09,08,25,17.00
2007,07,09,08,26,17.10
2007,07,09,08,27,17.20
2007,07,09,08,28,17.30
2007,07,09,08,29,17.30
2007,07,09,08,30,17.30
2007,07,09,08,31,17.40
2007,07,09,08,32,17.40
2007,07,09,08,33,17.50
2007,07,09,08,34,17.50
2007,07,09,08,35,17.60
2007,07,09,08,36,17.60
2007,07,09,08,37,17.70
2007,07,09,08,38,17.60
2007,07,09,08,39,17.60
2007,07,09,08,40,17.70
2007,07,09,08,41,17.70
2007,07,09,08,42,17.80
2007,07,09,08,43,17.80
2007,07,09,08,44,17.90
2007,07,09,08,45,17.90
2007,07,09,08,46,18.00
2007,07,09,08,47,18.00
2007,07,09,08,48,18.00
2007,07,09,08,49,18.00
2007,07,09,08,50,18.10
2007,07,09,08,51,18.10
2007,07,09,08,52,18.10
2007,07,09,08,53,18.10
2007,07,09,08,54,18.20
2007,07,09,08,55,18.20
2007,07,09,08,56,18.30
2007,07,09,08,57,18.30
2007,07,09,08,58,18.40
2007,07,09,08,59,18.40
2007,07,09,09,00,18.40
2007,07,09,09,01,18.40
2007,07,09,09,02,18.40
2007,07,09,09,03,18.30
2007,07,09,09,04,18.20
2007,07,09,09,05,18.10
2007,07,09,09,06,18.10
2007,07,09,09,07,18.10
2007,07,09,09,08,18.10
2007,07,09,09,09,18.20
2007,07,09,09,10,18.20
2007,07,09,09,11,18.30
2007,07,09,09,12,18.30
2007,07,09,09,13,18.40
2007,07,09,09,14,18.50
2007,07,09,09,15,18.60
2007,07,09,09,16,18.70
2007,07,09,09,17,18.80
2007,07,09,09,18,18.80
2007,07,09,09,19,18.70
2007,07,09,09,20,18.60
2007,07,09,09,21,18.40
2007,07,09,09,22,18.30
2007,07,09,09,23,18.30
2007,07,09,09,24,18.20
2007,07,09,09,25,18.20
2007,07,09,09,26,18.10
2007,07,09,09,27,18.20
2007,07,09,09,28,18.20
2007,07,09,09,29,18.30
2007,07,09,09,30,18.40
2007,07,09,09,31,18.50
2007,07,09,09,32,18.60
2007,07,09,09,33,18.70
2007,07,09,09,34,18.80
2007,07,09,09,35,18.90
2007,07,09,09,36,19.00
2007,07,09,09,37,19.00
2007,07,09,09,38,19.00
2007,07,09,09,39,19.10
2007,07,09,09,40,19.10
2007,07,09,09,41,19.10
2007,07,09,09,42,19.20
2007,07,09,09,43,19.10
2007,07,09,09,44,18.80
2007,07,09,09,45,18.60
2007,07,09,09,46,18.40
2007,07,09,09,47,18.10
2007,07,09,09,48,17.90
2007,07,09,09,49,17.70
2007,07,09,09,50,17.60
2007,07,09,09,51,17.50
2007,07,09,09,52,17.40
2007,07,09,09,53,17.50
2007,07,09,09,54,17.50
2007,07,09,09,55,17.50
2007,07,09,09,56,17.50
2007,07,09,09,57,17.40
2007,07,09,09,58,17.30
2007,07,09,09,59,17.20
2007,07,09,10,00,17.10
2007,07,09,10,01,17.00
2007,07,09,10,02,16.80
2007,07,09,10,03,16.70
2007,07,09,10,04,16.60
2007,07,09,10,05,16.60
2007,07,09,10,06,16.50
2007,07,09,10,07,16.50
2007,07,09,10,08,16.30
2007,07,09,10,09,16.20
2007,07,09,10,10,16.00
2007,07,09,10,11,15.90
2007,07,09,10,12,15.90
2007,07,09,10,13,16.00
2007,07,09,10,14,16.10
2007,07,09,10,15,16.30
2007,07,09,10,16,16.40
2007,07,09,10,17,16.60
2007,07,09,10,18,16.80
2007,07,09,10,19,16.90
2007,07,09,10,20,16.90
2007,07,09,10,21,16.80
2007,07,09,10,22,16.70
2007,07,09,10,23,16.70
2007,07,09,10,24,16.60
2007,07,09,10,25,16.70
2007,07,09,10,26,16.70
2007,07,09,10,27,16.80
2007,07,09,10,28,16.90
2007,07,09,10,29,17.00
2007,07,09,10,30,17.10
2007,07,09,10,31,17.30
2007,07,09,10,32,17.40
2007,07,09,10,33,17.50
2007,07,09,10,34,17.60
2007,07,09,10,35,17.60
2007,07,09,10,36,17.60
2007,07,09,10,37,17.60
2007,07,09,10,38,17.70
2007,07,09,10,39,17.80
2007,07,09,10,40,17.90
2007,07,09,10,41,18.00
2007,07,09,10,42,18.10
2007,07,09,10,43,18.10
2007,07,09,10,44,18.10
2007,07,09,10,45,18.10
2007,07,09,10,46,18.20
2007,07,09,10,47,18.20
2007,07,09,10,48,18.10
2007,07,09,10,49,18.10
2007,07,09,10,50,18.10
2007,07,09,10,51,18.00
2007,07,09,10,52,17.90
2007,07,09,10,53,17.90
2007,07,09,10,54,17.80
2007,07,09,10,55,17.80
2007,07,09,10,56,17.80
2007,07,09,10,57,17.80
2007,07,09,10,58,17.90
2007,07,09,10,59,17.90
2007,07,09,11,00,17.90
2007,07,09,11,01,17.90
2007,07,09,11,02,17.90
2007,07,09,11,03,17.90
2007,07,09,11,04,17.90
2007,07,09,11,05,17.90
2007,07,09,11,06,17.90
2007,07,09,11,07,17.90
2007,07,09,11,08,17.90
2007,07,09,11,09,17.80
2007,07,09,11,10,17.80
2007,07,09,11,11,17.80
2007,07,09,11,12,17.90
2007,07,09,11,13,17.90
2007,07,09,11,14,17.80
2007,07,09,11,15,17.90
2007,07,09,11,16,17.90
2007,07,09,11,17,17.80
2007,07,09,11,18,17.70
2007,07,09,11,19,17.70
2007,07,09,11,20,17.70
2007,07,09,11,21,17.70
2007,07,09,11,22,17.80
2007,07,09,11,23,17.90
2007,07,09,11,24,18.00
2007,07,09,11,25,18.20
2007,07,09,11,26,18.20
2007,07,09,11,27,18.00
2007,07,09,11,28,17.80
2007,07,09,11,29,17.70
2007,07,09,11,30,17.70
2007,07,09,11,31,17.80
2007,07,09,11,32,17.90
2007,07,09,11,33,18.00
2007,07,09,11,34,18.10
2007,07,09,11,35,18.00
2007,07,09,11,36,18.00
2007,07,09,11,37,18.00
2007,07,09,11,38,18.10
2007,07,09,11,39,18.20
2007,07,09,11,40,18.30
2007,07,09,11,41,18.40
2007,07,09,11,42,18.50
2007,07,09,11,43,18.70
2007,07,09,11,44,18.80
2007,07,09,11,45,18.80
2007,07,09,11,46,18.90
2007,07,09,11,47,18.90
2007,07,09,11,48,18.90
2007,07,09,11,49,19.00
2007,07,09,11,50,19.10
2007,07,09,11,51,19.10
2007,07,09,11,52,19.20
2007,07,09,11,53,19.20
2007,07,09,11,54,19.20
2007,07,09,11,55,19.30
2007,07,09,11,56,19.30
2007,07,09,11,57,19.40
2007,07,09,11,58,19.50
2007,07,09,11,59,19.60
2007,07,09,12,00,19.60
2007,07,09,12,01,19.60
2007,07,09,12,02,19.60
2007,07,09,12,03,19.60
2007,07,09,12,04,19.70
2007,07,09,12,05,19.80
2007,07,09,12,06,20.00
2007,07,09,12,07,20.10
2007,07,09,12,08,20.30
2007,07,09,12,09,20.50
2007,07,09,12,10,20.60
2007,07,09,12,11,20.60
2007,07,09,12,12,20.60
2007,07,09,12,13,20.50
2007,07,09,12,14,20.50
2007,07,09,12,15,20.40
2007,07,09,12,16,20.40
2007,07,09,12,17,20.40
2007,07,09,12,18,20.50
2007,07,09,12,19,20.50
2007,07,09,12,20,20.50
2007,07,09,12,21,20.60
2007,07,09,12,22,20.70
2007,07,09,12,23,20.90
2007,07,09,12,24,21.00
2007,07,09,12,25,21.10
2007,07,09,12,26,21.20
2007,07,09,12,27,21.20
2007,07,09,12,28,21.20
2007,07,09,12,29,21.30
2007,07,09,12,30,21.30
2007,07,09,12,31,21.30
2007,07,09,12,32,21.30
2007,07,09,12,33,21.30
2007,07,09,12,34,21.40
2007,07,09,12,35,21.30
2007,07,09,12,36,21.30
2007,07,09,12,37,21.40
2007,07,09,12,38,21.50
2007,07,09,12,39,21.60
2007,07,09,12,40,21.60
2007,07,09,12,41,21.60
2007,07,09,12,42,21.60
2007,07,09,12,43,21.70
2007,07,09,12,44,21.70
2007,07,09,12,45,21.80
2007,07,09,12,46,21.80
2007,07,09,12,47,21.70
2007,07,09,12,48,21.60
2007,07,09,12,49,21.60
2007,07,09,12,50,21.60
2007,07,09,12,51,21.70
2007,07,09,12,52,21.80
2007,07,09,12,53,21.80
2007,07,09,12,54,21.90
2007,07,09,12,55,21.90
2007,07,09,12,56,21.80
2007,07,09,12,57,21.90
2007,07,09,12,58,22.00
2007,07,09,12,59,22.10
2007,07,09,13,00,22.10
2007,07,09,13,01,22.20
2007,07,09,13,02,22.20
2007,07,09,13,03,22.10
2007,07,09,13,04,22.00
2007,07,09,13,05,22.10
2007,07,09,13,06,22.10
2007,07,09,13,07,22.20
2007,07,09,13,08,22.10
2007,07,09,13,09,22.10
2007,07,09,13,10,22.10
2007,07,09,13,11,22.00
2007,07,09,13,12,21.90
2007,07,09,13,13,21.80
2007,07,09,13,14,21.80
2007,07,09,13,15,21.70
2007,07,09,13,16,21.70
2007,07,09,13,17,21.90
2007,07,09,13,18,21.90
2007,07,09,13,19,22.00
2007,07,09,13,20,22.00
2007,07,09,13,21,22.10
2007,07,09,13,22,22.00
2007,07,09,13,23,22.00
2007,07,09,13,24,22.00
2007,07,09,13,25,22.10
2007,07,09,13,26,22.10
2007,07,09,13,27,22.10
2007,07,09,13,28,22.10
2007,07,09,13,29,22.10
2007,07,09,13,30,22.00
2007,07,09,13,31,22.00
2007,07,09,13,32,22.00
2007,07,09,13,33,21.90
2007,07,09,13,34,21.80
2007,07,09,13,35,21.80
2007,07,09,13,36,21.80
2007,07,09,13,37,21.80
2007,07,09,13,38,21.90
2007,07,09,13,39,21.90
2007,07,09,13,40,21.80
2007,07,09,13,41,21.70
2007,07,09,13,42,21.50
2007,07,09,13,43,21.60
2007,07,09,13,44,21.50
2007,07,09,13,45,21.50
2007,07,09,13,46,21.40
2007,07,09,13,47,21.40
2007,07,09,13,48,21.40
2007,07,09,13,49,21.40
2007,07,09,13,50,21.40
2007,07,09,13,51,21.50
2007,07,09,13,52,21.50
2007,07,09,13,53,21.40
2007,07,09,13,54,21.40
2007,07,09,13,55,21.30
2007,07,09,13,56,21.30
2007,07,09,13,57,21.30
2007,07,09,13,58,21.30
2007,07,09,13,59,21.30
2007,07,09,14,00,21.30
2007,07,09,14,01,21.30
2007,07,09,14,02,21.30
2007,07,09,14,03,21.40
2007,07,09,14,04,21.50
2007,07,09,14,05,21.60
2007,07,09,14,06,21.70
2007,07,09,14,07,21.90
2007,07,09,14,08,22.00
2007,07,09,14,09,22.10
2007,07,09,14,10,22.20
2007,07,09,14,11,22.20
2007,07,09,14,12,22.30
2007,07,09,14,13,22.40
2007,07,09,14,14,22.50
2007,07,09,14,15,22.60
2007,07,09,14,16,22.70
2007,07,09,14,17,22.80
2007,07,09,14,18,22.80
2007,07,09,14,19,22.80
2007,07,09,14,20,22.90
2007,07,09,14,21,22.80
2007,07,09,14,22,22.70
2007,07,09,14,23,22.60
2007,07,09,14,24,22.50
2007,07,09,14,25,22.40
2007,07,09,14,26,22.40
2007,07,09,14,27,22.50
2007,07,09,14,28,22.50
2007,07,09,14,29,22.40
2007,07,09,14,30,22.30
2007,07,09,14,31,22.20
2007,07,09,14,32,22.10
2007,07,09,14,33,22.10
2007,07,09,14,34,22.20
2007,07,09,14,35,22.30
2007,07,09,14,36,22.40
2007,07,09,14,37,22.50
2007,07,09,14,38,22.60
2007,07,09,14,39,22.60
2007,07,09,14,40,22.50
2007,07,09,14,41,22.50
2007,07,09,14,42,22.60
2007,07,09,14,43,22.70
2007,07,09,14,44,22.80
2007,07,09,14,45,22.80
2007,07,09,14,46,22.80
2007,07,09,14,47,22.80
2007,07,09,14,48,22.80
2007,07,09,14,49,22.80
2007,07,09,14,50,22.70
2007,07,09,14,51,22.60
2007,07,09,14,52,22.50
2007,07,09,14,53,22.40
2007,07,09,14,54,22.40
2007,07,09,14,55,22.40
2007,07,09,14,56,22.40
2007,07,09,14,57,22.50
2007,07,09,14,58,22.60
2007,07,09,14,59,22.70
2007,07,09,15,00,22.70
2007,07,09,15,01,22.70
2007,07,09,15,02,22.60
2007,07,09,15,03,22.60
2007,07,09,15,04,22.70
2007,07,09,15,05,22.80
2007,07,09,15,06,22.90
2007,07,09,15,07,23.10
2007,07,09,15,08,23.10
2007,07,09,15,09,23.20
2007,07,09,15,10,23.20
2007,07,09,15,11,23.20
2007,07,09,15,12,23.20
2007,07,09,15,13,23.20
2007,07,09,15,14,23.20
2007,07,09,15,15,23.30
2007,07,09,15,16,23.30
2007,07,09,15,17,23.40
2007,07,09,15,18,23.50
2007,07,09,15,19,23.60
2007,07,09,15,20,23.60
2007,07,09,15,21,23.60
2007,07,09,15,22,23.50
2007,07,09,15,23,23.30
2007,07,09,15,24,23.20
2007,07,09,15,25,23.20
2007,07,09,15,26,23.20
2007,07,09,15,27,23.30
2007,07,09,15,28,23.30
2007,07,09,15,29,23.30
2007,07,09,15,30,23.20
2007,07,09,15,31,23.10
2007,07,09,15,32,23.00
2007,07,09,15,33,23.00
2007,07,09,15,34,23.00
2007,07,09,15,35,23.10
2007,07,09,15,36,23.10
2007,07,09,15,37,23.00
2007,07,09,15,38,22.80
2007,07,09,15,39,22.70
2007,07,09,15,40,22.60
2007,07,09,15,41,22.60
2007,07,09,15,42,22.60
2007,07,09,15,43,22.60
2007,07,09,15,44,22.60
2007,07,09,15,45,22.60
2007,07,09,15,46,22.70
2007,07,09,15,47,22.80
2007,07,09,15,48,22.90
2007,07,09,15,49,23.00
2007,07,09,15,50,22.90
2007,07,09,15,51,22.90
2007,07,09,15,52,23.00
2007,07,09,15,53,23.00
2007,07,09,15,54,22.80
2007,07,09,15,55,22.70
2007,07,09,15,56,22.50
2007,07,09,15,57,22.40
2007,07,09,15,58,22.40
2007,07,09,15,59,22.50
2007,07,09,16,00,22.60
2007,07,09,16,01,22.70
2007,07,09,16,02,22.70
2007,07,09,16,03,22.70
2007,07,09,16,04,22.70
2007,07,09,16,05,22.80
2007,07,09,16,06,22.80
2007,07,09,16,07,22.80
2007,07,09,16,08,22.80
2007,07,09,16,09,22.90
2007,07,09,16,10,22.90
2007,07,09,16,11,23.00
2007,07,09,16,12,23.10
2007,07,09,16,13,23.10
2007,07,09,16,14,23.10
2007,07,09,16,15,23.00
2007,07,09,16,16,22.90
2007,07,09,16,17,22.80
2007,07,09,16,18,22.80
2007,07,09,16,19,22.90
2007,07,09,16,20,23.10
2007,07,09,16,21,23.20
2007,07,09,16,22,23.20
2007,07,09,16,23,23.10
2007,07,09,16,24,23.10
2007,07,09,16,25,23.00
2007,07,09,16,26,22.90
2007,07,09,16,27,22.80
2007,07,09,16,28,22.80
2007,07,09,16,29,22.70
2007,07,09,16,30,22.70
2007,07,09,16,31,22.70
2007,07,09,16,32,22.60
2007,07,09,16,33,22.50
2007,07,09,16,34,22.60
2007,07,09,16,35,22.70
2007,07,09,16,36,22.80
2007,07,09,16,37,22.80
2007,07,09,16,38,22.90
2007,07,09,16,39,22.90
2007,07,09,16,40,22.90
2007,07,09,16,41,22.90
2007,07,09,16,42,22.90
2007,07,09,16,43,22.90
2007,07,09,16,44,22.90
2007,07,09,16,45,22.90
2007,07,09,16,46,22.90
2007,07,09,16,47,22.80
2007,07,09,16,48,22.80
2007,07,09,16,49,22.90
2007,07,09,16,50,22.80
2007,07,09,16,51,22.80
2007,07,09,16,52,22.80
2007,07,09,16,53,22.80
2007,07,09,16,54,22.80
2007,07,09,16,55,22.80
2007,07,09,16,56,22.80
2007,07,09,16,57,22.80
2007,07,09,16,58,22.80
2007,07,09,16,59,22.80
2007,07,09,17,00,22.80
2007,07,09,17,01,22.90
2007,07,09,17,02,23.00
2007,07,09,17,03,23.10
2007,07,09,17,04,23.20
2007,07,09,17,05,23.30
2007,07,09,17,06,23.30
2007,07,09,17,07,23.40
2007,07,09,17,08,23.40
2007,07,09,17,09,23.50
2007,07,09,17,10,23.40
2007,07,09,17,11,23.40
2007,07,09,17,12,23.40
2007,07,09,17,13,23.40
2007,07,09,17,14,23.40
2007,07,09,17,15,23.50
2007,07,09,17,16,23.50
2007,07,09,17,17,23.60
2007,07,09,17,18,23.70
2007,07,09,17,19,23.70
2007,07,09,17,20,23.80
2007,07,09,17,21,23.80
2007,07,09,17,22,23.60
2007,07,09,17,23,23.60
2007,07,09,17,24,23.60
2007,07,09,17,25,23.50
2007,07,09,17,26,23.50
2007,07,09,17,27,23.50
2007,07,09,17,28,23.50
2007,07,09,17,29,23.50
2007,07,09,17,30,23.60
2007,07,09,17,31,23.60
2007,07,09,17,32,23.70
2007,07,09,17,33,23.80
2007,07,09,17,34,23.80
2007,07,09,17,35,23.90
2007,07,09,17,36,23.90
2007,07,09,17,37,24.00
2007,07,09,17,38,24.00
2007,07,09,17,39,24.10
2007,07,09,17,40,24.10
2007,07,09,17,41,24.10
2007,07,09,17,42,24.10
2007,07,09,17,43,24.00
2007,07,09,17,44,24.00
2007,07,09,17,45,23.90
2007,07,09,17,46,23.90
2007,07,09,17,47,23.90
2007,07,09,17,48,23.90
2007,07,09,17,49,24.00
2007,07,09,17,50,24.10
2007,07,09,17,51,24.20
2007,07,09,17,52,24.20
2007,07,09,17,53,24.30
2007,07,09,17,54,24.30
2007,07,09,17,55,24.30
2007,07,09,17,56,24.40
2007,07,09,17,57,24.40
2007,07,09,17,58,24.30
2007,07,09,17,59,24.20
2007,07,09,18,00,24.10
2007,07,09,18,01,24.00
2007,07,09,18,02,24.00
2007,07,09,18,03,24.00
2007,07,09,18,04,24.10
2007,07,09,18,05,24.10
2007,07,09,18,06,24.10
2007,07,09,18,07,24.10